Regional Weather Roundup
Issued by NWS

Home | Current Version | Previous Version | Text Only | Print | Product List | Glossary On
Versions: 1 2 3 4 5 6 7 8 9 10 11 12 13 14 15 16 17 18 19 20 21 22 23 24 25 26 27 28 29 30 31 32 33 34 35 36 37 38 39 40 41 42 43 44 45 46 47 48 49 50
000
ASUS43 KMPX 240601
RWRMN
WEATHER ROUNDUP FOR MINNESOTA
NATIONAL WEATHER SERVICE TWIN CITIES/CHANHASSEN MN
100 AM CDT WED AUG 24 2016


NOTE: "FAIR" INDICATES FEW OR NO CLOUDS BELOW 12,000 FEET WITH NO
SIGNIFICANT WEATHER AND/OR OBSTRUCTIONS TO VISIBILITY. N/A MEANS
CURRENT SKY AND/OR WEATHER CONDITIONS ARE NOT AVAILABLE.

MNZ060>063-068>070-240700-
   Twin Cities Metro

CITY           SKY/WX    TMP DP  RH WIND       PRES   REMARKS
TWIN CITIES    CLOUDY    69  65  86 SE7       29.82F
6HR MIN TEMP:  68; 6HR MAX TEMP:  77; 6HR PCP:  1.01;

ST PAUL        LGT RAIN  68  66  93 SE8       29.82F
CRYSTAL        LGT RAIN  68  64  87 SE3       29.81F
BLAINE         RAIN      70  68  94 SE6       29.83F
LAKEVILLE      DRIZZLE   64  64 100 E3        29.83F
EDEN PRAIRIE   RAIN      69  65  86 E3        29.81F FOG
6HR MIN TEMP:  68; 6HR MAX TEMP:  76; 6HR PCP:  0.82;

LAKEVILLE      DRIZZLE   64  64 100 E3        29.83F
SOUTH ST PAUL  CLOUDY    68  67  97 SE5       29.82F
LAKE ELMO      DRIZZLE   68  66  94 E3        29.84F
$$
MNZ001>005-007-008-013>017-022>024-027-028-240700-
   Northwest Minnesota

CITY           SKY/WX    TMP DP  RH WIND       PRES   REMARKS
BEMIDJI        CLEAR     70  68  94 S6        29.80S
HALLOCK        CLOUDY    68  61  77 W9        29.76R
ROSEAU         CLEAR     72  66  83 W8        29.73S
WARROAD        CLOUDY    72  70  94 W9G16     29.73S
THIEF RVR FALL CLOUDY    70  64  81 W12       29.78S
CROOKSTON      CLOUDY    70  57  64 NW10      29.79R
FOSSTON        CLOUDY    68  63  83 SW3       29.80S
DETROIT LAKES  CLOUDY    70  64  83 S10       29.82S
MOORHEAD       CLOUDY    73  61  64 N8        29.80R
PARK RAPIDS    CLEAR     69  66  90 SW7       29.82S
MAHNOMEN       RAIN      68  66  92 W10       29.81R
$$
MNZ006-009>011-018-025>026-240700-
   North Central Minnesota

CITY           SKY/WX    TMP DP  RH WIND       PRES   REMARKS
BAUDETTE       CLEAR     73  65  75 SW13      29.74R
FLAG ISLAND    MOCLDY    75  66  73 W6        29.69R
INTL FALLS     CLEAR     71  68  90 S3        29.77R
6HR MIN TEMP:  71; 6HR MAX TEMP:  83;

WASKISH        MOCLDY    72  70  94 S6        29.77S
BIG FORK       MOCLDY    72  66  83 S8        29.81S
LONGVILLE      PTCLDY    66  64  94 S3        29.82S
GRAND RAPIDS   CLOUDY    67  64  90 S6        29.85S
CRANE LAKE     PTCLDY    70  66  88 S6        29.83R
ORR            CLOUDY    70  63  78 S7        29.81R
COOK           CLEAR     70  64  83 S7        29.83S
WALKER         FAIR      70  66  88 S7        29.81S
$$
MNZ012-019>021-037-240700-
   Northeast Minnesota

CITY           SKY/WX    TMP DP  RH WIND       PRES   REMARKS
DULUTH         CLOUDY    69  65  86 S9        29.85F
6HR MIN TEMP:  69; 6HR MAX TEMP:  79;

ELY            CLOUDY    70  63  78 S7        29.84F
HIBBING        PTCLDY    66  63  90 CALM      29.83F
EVELETH        PTCLDY    67  63  85 S5        29.86S
DULUTH HARBOR  CLOUDY    72  66  83 S3        29.83S
TWO HARBORS    CLOUDY    70  64  83 CALM      29.83F
SILVER BAY     CLOUDY    64  64 100 CALM      29.84F
GRAND MARAIS     N/A     67  65  93 CALM      29.85F
G MARAIS ARPRT CLOUDY    64  61  88 S6        29.91F
$$
MNZ029>031-032-039>041-046>048-054>057-064-240700-
   West Central Minnesota

CITY           SKY/WX    TMP DP  RH WIND       PRES   REMARKS
FERGUS FALLS   CLOUDY    68  68 100 S7        29.82S
WHEATON        CLOUDY    70  68  94 SE5       29.83R
MORRIS         CLOUDY    66  66 100 S3        29.81F
ALEXANDRIA     MOCLDY    67  65  93 SW5       29.84F
ELBOW LAKE     CLOUDY    66  66  99 S7        29.83R
WADENA         CLEAR     64  63  94 SW3       29.82S FOG
GLENWOOD       CLEAR     66  64  94 S6        29.84S
APPLETON       CLOUDY    68  64  88 CALM      29.80F
BENSON         PTCLDY    66  63  88 CALM      29.82F
ORTONVILLE     MOCLDY    68  64  88 CALM      29.81F
MADISON        PTCLDY    68  66  94 CALM      29.81F
WILLMAR        CLOUDY    68  66  94 CALM      29.83F
$$
MNZ033>034-036-042>043-049>051-058-059-240700-
   Central Minnesota

CITY           SKY/WX    TMP DP  RH WIND       PRES   REMARKS
ST CLOUD       CLOUDY    66  65  96 S3        29.83F
6HR MIN TEMP:  66; 6HR MAX TEMP:  77;

SAUK CENTRE    MOCLDY    66  65  99 S5        29.83F
PAYNESVILLE    CLOUDY    66  67 100 S6        29.83F
AITKIN         CLOUDY    66  61  82 S3        29.82F
PINE RIVER     MOCLDY    64  63  94 CALM      29.86S
BRAINERD       CLOUDY    65  63  93 S7        29.83F
STAPLES        CLOUDY    66  64  94 CALM      29.82F
LONG PRAIRIE   CLOUDY    66  64  94 SE3       29.83F
LITTLE FALLS   CLOUDY    66  63  88 S5        29.83F
LITCHFIELD     DRIZZLE   68  66  94 CALM      29.84S
BUFFALO        CLOUDY    67  64  90 CALM      29.84F
MAPLE LAKE     LGT RAIN  67  66  96 CALM      29.84F
HUTCHINSON     CLOUDY    67  67  99 E3        29.84S
$$
MNZ037-044-045-052-053-240700-
   East Central Minnesota

CITY           SKY/WX    TMP DP  RH WIND       PRES   REMARKS
PRINCETON      DRIZZLE   70  66  88 S9        29.84S
MORA           CLOUDY    68  63  83 S3        29.85F
CAMBRIDGE      DRIZZLE   70  63  78 S6        29.82F
RUSH CITY      CLOUDY    68  65  89 S6        29.85S
MOOSE LAKE     CLOUDY    68  63  83 S5        29.82F
HINCKLEY       CLOUDY    70  66  88 SE6       29.84F
CLOQUET        PTCLDY    66  61  82 S3        29.85S
MCGREGOR       CLOUDY    68  63  83 S7        29.84F
$$
MNZ071>073-080-081-089-090-097-098-240700-
   Southwest Minnesota

CITY           SKY/WX    TMP DP  RH WIND       PRES   REMARKS
MONTEVIDEO     CLOUDY    66  66 100 CALM      29.83S
GRANITE FALLS  CLOUDY    68  67  96 N3        29.83S
CANBY          CLOUDY    67  66  95 CALM      29.82F
MARSHALL       CLOUDY    67  66  97 CALM      29.82S
REDWOOD FALLS  CLOUDY    67  65  93 CALM      29.81F
OLIVIA         CLOUDY    68  64  88 CALM      29.82S
PIPESTONE      CLOUDY    72  72 100 W5        29.83F
WINDOM         CLOUDY    66  64  94 CALM      29.82S FOG
WORTHINGTON    CLOUDY    71  69  93 SW8       29.83S
JACKSON        CLOUDY    72  70  94 S5        29.84R FOG
TRACY          CLOUDY    68  67  98 CALM      29.82F
$$
MNZ065>067-074>077-082>085-091>093-240700-
   South Central Minnesota

CITY           SKY/WX    TMP DP  RH WIND       PRES   REMARKS
MANKATO        CLOUDY    66  63  88 SE9       29.82F
NEW ULM          N/A     66  66 100 E7        29.82S
ST JAMES       CLOUDY    63  61  94 NE5       29.84R
FAIRMONT         N/A    N/A N/A N/A MISG        N/A
GLENCOE        CLOUDY    68  68 100 E5        29.82F
FARIBAULT      CLOUDY    66  66 100 CALM      29.83S
OWATONNA       CLOUDY    68  64  88 SE7       29.82F
WASECA         LGT RAIN  68  64  88 S6        29.84S
ALBERT LEA     CLOUDY    68  66  94 CALM      29.84R
$$
MNZ078>079-086>088-094>096-240700-
   Southeast Minnesota

CITY           SKY/WX    TMP DP  RH WIND       PRES   REMARKS
ROCHESTER      CLOUDY    66  66 100 SE12      29.86F
6HR MIN TEMP:  66; 6HR MAX TEMP:  71; 6HR PCP:  0.87;

RED WING       TSTM      70  66  88 SE13      29.83S VSB 3/4
STANTON        CLOUDY    66  64  94 CALM      29.82F
DODGE CENTER   CLOUDY    66  64  94 SE10      29.85S
WINONA         CLOUDY    70  68  94 S7G16     29.86F
AUSTIN         TSTM      66  63  88 SE7       29.85S
PRESTON        TSTM      65  63  94 SE10      29.89S
$$
ABBREVIATIONS USED IN REMARKS
   TC - TEMPERATURES IN CELSIUS
  WCI - WIND CHILL INDEX
   HX - HEAT INDEX
  VSB - VISIBILITY
$$




USA.gov is the U.S. government's official web portal to all federal, state and local government web resources and services.